Regional Weather Roundup
Issued by NWS

Home | Current Version | Previous Version | Text Only | Print | Product List | Glossary On
Versions: 1 2 3 4 5 6 7 8 9 10 11 12 13 14 15 16 17 18 19 20 21 22 23 24 25 26 27
000
ASUS45 KBOI 311210
RWRID
WEATHER ROUNDUP FOR IDAHO
NATIONAL WEATHER SERVICE BOISE ID
600 AM MDT FRI OCT 31 2014

NOTE: "FAIR" INDICATES FEW OR NO CLOUDS BELOW 12000 FEET
WITH NO SIGNIFICANT WEATHER AND/OR OBSTRUCTIONS TO VISIBILITY

IDZ012-014-311300-
SOUTHWEST IDAHO


CITY           SKY/WX    TMP DP  RH WIND       PRES   REMARKS
BOISE          CLOUDY    49  38  65 NW6       29.78R
CALDWELL       CLOUDY    45  36  70 N3        29.81F
MOUNTAIN HOME  CLOUDY    58  30  34 SE23G30   29.81S
$$

IDZ016-017-311300-
SOUTHCENTRAL IDAHO


CITY           SKY/WX    TMP DP  RH WIND       PRES   REMARKS
BURLEY         CLOUDY    42  30  62 N3        29.92F
JEROME         CLOUDY    48  28  46 NE15      29.90F
TWIN FALLS     CLOUDY    57  26  30 MISG      29.88F
$$

IDZ019>023-311300-
SOUTHEAST IDAHO


CITY           SKY/WX    TMP DP  RH WIND       PRES   REMARKS
IDAHO FALLS    MOCLDY    34  29  82 N6        30.01F WCI  29
POCATELLO      CLEAR     38  31  76 N5        29.98F WCI  34
REXBURG        MOCLDY    37  30  75 NE3       30.03F
$$

IDZ006-010-011-018-031-032-311300-
CENTRAL IDAHO MOUNTAINS


CITY           SKY/WX    TMP DP  RH WIND       PRES   REMARKS
MCCALL         MOCLDY    36  33  89 CALM      29.84F
HAILEY         MOCLDY    41  30  65 NW9       30.00F
STANLEY          N/A     31  25  78 CALM      29.98F
SALMON         PTCLDY    34  30  86 SE5       29.95F WCI  30
CHALLIS        CLEAR     35  29  78 CALM      29.97F
$$

IDZ002-004-006-007-026-311300-
NORTHERN IDAHO


CITY           SKY/WX    TMP DP  RH WIND       PRES   REMARKS
LEWISTON       CLOUDY    52  47  83 SW3       29.75F
LOWELL           N/A     47  45  93 N5        29.81F
COEUR D`ALENE  CLOUDY    45  41  87 E6        29.76S
MULLAN PASS    CLOUDY    41  34  76 S9        29.84F
$$



USA.gov is the U.S. government's official web portal to all federal, state and local government web resources and services.